OneWeb SL0112

operational
NORAD ID: 48051 Int'l Des: 2021-025 Owner: ONEWEBN Country: UK Constellation: oneweb
LEOCIRCULARPOLARONEWEB_TYPE

关于 OneWeb SL0112

正在加载描述...

实时位置

正在加载3D地球...

即将过境

高度历史

Altitude vs Time

uPlot chart will show altitude changes over time

两行轨道根数

1 48051U 21025K 25258.56565186 .00000045 00000-0 87845-4 0 9997
2 48051 87.9038 14.7508 0001826 99.3035 260.8300 13.13470029217544
Epoch: Sep 15, 2025 • Age: 16 hours

当前状态

高度 1213.6 km
速度 7.25 km/s
星下点 -4.45°S, 71.1°W
发射日期 Mar 25, 2021
运行时间 4.4 years
类型 internet

技术详情

分类 Payload
质量 148.00 kg
干质量 140.00 kg
总质量 148.00 kg
长度 1.30 m
直径 1.00 m
跨度 5.00 m
形状 Trapezoid+2 pan
制造商 ONEWUS
平台类型 ARROW
阶段状态 In Orbit
所有者/国家 ONEWEBN/UK

大型星座

Loading constellations...